Wind_Speed
85 84 82 81 79 79 79 77 71 66 64 64 62 60 57 53 47 47 46 45 42 41 37 33 28 22 24 23 20 19 19 20 19 19 15 15 14 14 16 17 15 14 14 14 14 15 16 17 18
81 81 84 89 89 86 85 81 78 73 72 74 69 68 65 61 55 52 49 46 44 41 41 38 32 29 26 23 17 19 20 22 22 20 17 16 17 16 18 17 15 15 15 15 16 15 17 17 19
72 75 77 81 83 89 91 87 83 76 76 77 75 73 71 67 61 58 54 50 49 44 41 42 36 33 29 28 27 21 23 23 23 22 20 18 19 18 19 18 16 16 16 16 17 16 18 19 20
51 60 66 68 76 82 85 86 86 84 80 81 81 77 73 71 69 61 56 55 52 51 47 46 43 38 35 29 28 21 22 20 22 22 22 20 21 20 20 18 17 17 17 18 18 17 20 22 22
34 38 51 60 64 70 78 81 80 83 84 85 84 83 78 76 71 67 62 58 58 55 52 49 48 43 38 35 33 31 27 24 21 23 23 21 22 21 20 19 18 17 18 20 19 17 20 23 24
24 30 37 41 49 57 64 71 75 80 84 86 85 88 82 82 76 72 67 66 61 59 55 53 51 50 44 43 42 35 33 27 22 22 23 23 23 23 23 22 19 19 20 21 21 19 20 23 24
25 28 34 38 45 46 50 57 67 73 79 84 88 87 87 84 83 77 72 71 65 65 59 56 56 53 49 45 43 40 37 32 26 21 21 24 25 26 26 25 22 21 21 23 24 22 22 23 24
30 27 31 33 35 43 51 52 54 63 74 78 84 88 94 87 88 84 79 75 72 70 65 60 58 57 55 51 45 45 39 39 32 29 21 22 28 28 31 27 25 24 25 26 27 26 27 27 27
36 33 34 34 35 38 45 53 60 57 64 71 81 85 92 92 90 89 87 81 79 75 72 67 63 61 59 55 51 46 46 45 37 33 32 30 29 32 33 32 30 29 29 29 29 28 29 29 30
51 48 43 41 39 40 43 49 54 63 65 67 74 85 89 90 94 96 90 87 85 79 76 72 69 64 63 57 57 50 50 50 43 39 34 34 30 31 35 36 35 34 33 32 33 33 32 32 34
52 51 53 48 47 45 45 50 51 59 68 75 73 79 83 91 98 98 95 92 90 88 82 77 74 70 66 62 59 59 53 51 51 41 41 38 36 33 36 38 40 39 38 37 35 37 38 39 40
57 51 51 56 51 50 50 55 56 58 64 76 81 79 79 86 101 103 101 94 93 92 87 85 79 74 71 67 61 59 55 49 49 46 45 44 40 39 37 38 41 42 44 43 42 40 41 43 44
63 55 61 61 56 54 55 60 61 64 64 71 79 84 80 78 92 103 104 98 93 90 89 87 84 79 75 72 67 64 59 57 55 51 49 48 45 42 42 40 42 45 47 47 48 47 47 47 48
68 60 62 59 59 57 61 65 64 65 65 72 79 82 84 77 82 96 102 98 96 90 90 89 89 82 80 75 71 69 62 62 59 57 54 52 49 47 46 45 45 49 50 51 52 53 53 53 53
76 65 62 62 61 58 62 67 64 64 67 72 80 79 75 79 77 86 97 98 98 92 91 88 88 85 84 79 76 72 68 64 63 62 58 57 56 53 50 51 50 48 53 55 56 57 58 59 59
75 65 61 62 61 60 61 69 63 60 60 64 73 71 66 69 71 79 86 95 96 95 79 73 90 90 89 82 80 75 71 69 68 64 64 62 60 61 57 55 54 55 56 57 57 58 60 62 64
71 61 58 58 59 61 63 65 59 49 51 53 57 66 62 63 68 79 76 93 95 96 87 81 74 88 90 87 82 79 75 73 72 67 68 66 64 63 60 61 59 60 60 61 59 59 62 64 66
69 58 59 55 57 59 63 59 54 47 48 50 47 55 56 52 56 68 77 87 91 95 96 85 75 73 81 77 80 83 80 78 75 73 73 70 68 63 65 64 66 65 65 64 63 64 65 67 67
70 55 55 55 55 55 61 53 52 45 44 45 44 47 53 53 49 59 68 78 82 92 104 87 82 79 72 78 79 82 83 80 78 76 74 73 70 69 69 70 68 68 68 68 66 64 63 61 62
68 59 56 56 54 53 58 51 49 44 40 37 38 40 42 43 46 52 56 65 77 68 85 95 87 85 77 78 80 80 80 82 80 78 75 74 73 73 71 71 71 71 70 69 69 67 66 69 71
69 65 58 53 52 49 52 48 45 39 33 26 23 26 30 33 41 46 54 58 60 76 85 89 82 81 73 71 80 80 81 80 81 80 78 76 74 73 72 72 72 73 71 70 69 68 69 73 73
79 72 59 54 51 45 46 43 42 34 26 17 10 15 24 34 36 41 40 55 33 62 80 86 74 68 68 66 70 75 77 78 77 78 76 76 75 72 73 72 72 72 72 72 70 69 71 72 73
78 77 63 54 49 43 40 39 39 29 26 8 9 17 25 33 38 39 28 63 58 38 57 79 78 59 59 63 66 71 77 80 77 74 76 76 74 74 74 71 67 67 68 69 71 73 72 73 76
78 80 62 55 45 40 37 35 32 22 20 4 13 32 32 31 28 31 24 41 62 47 54 52 81 74 68 59 63 64 62 69 73 73 70 71 73 67 69 67 66 66 65 67 69 74 73 74 78
75 79 62 53 49 41 34 30 27 13 9 7 7 29 42 40 41 35 39 39 47 52 50 54 56 71 73 74 66 66 65 67 69 57 73 72 69 70 70 69 69 68 67 69 70 72 74 76 76
76 80 71 54 48 39 31 25 25 14 8 12 14 26 42 52 55 49 48 34 45 56 46 62 64 68 62 61 59 59 59 58 64 69 72 78 73 69 69 70 69 68 69 71 73 75 77 78 80
71 78 71 54 47 39 31 25 18 18 7 13 19 29 49 54 53 55 48 47 50 52 57 61 71 71 64 54 55 55 55 55 58 65 67 75 76 76 76 72 73 73 74 77 79 79 80 82 82
73 81 76 57 53 42 34 28 19 18 12 14 30 36 46 57 56 60 53 53 50 50 54 52 57 60 60 60 44 52 52 53 57 59 63 63 64 69 73 73 74 71 74 76 79 81 81 85 87
78 80 81 63 56 45 38 30 22 14 15 16 22 41 49 53 55 63 63 53 55 57 53 54 58 59 57 58 55 57 58 56 55 63 65 67 64 63 61 65 71 73 74 80 81 83 86 84 83
76 78 82 69 58 50 40 32 25 19 18 21 30 36 47 57 59 62 63 64 59 63 59 60 63 66 60 60 61 62 64 62 63 59 58 59 61 64 68 71 76 78 81 81 83 86 90 93 96
Wind_Direction
260 259 259 260 258 257 257 257 258 257 256 258 259 262 263 265 264 265 269 272 276 279 285 284 292 289 302 312 322 309 282 276 267 260 247 245 233 222 214 230 234 244 251 256 258 249 242 236 229
260 260 260 260 259 258 255 254 256 257 255 258 260 262 263 261 262 260 262 264 268 271 278 278 282 286 293 304 312 316 295 280 272 256 242 239 234 225 226 230 238 244 252 252 253 246 237 233 227
260 259 259 257 258 259 257 256 256 255 255 257 257 260 261 259 257 257 258 256 262 262 266 272 277 277 284 287 292 298 306 300 278 265 244 237 239 231 234 232 240 247 249 248 252 250 238 229 227
266 262 260 258 257 257 257 256 255 253 251 254 255 255 258 255 255 253 253 254 256 258 261 264 272 269 274 276 287 284 304 300 291 267 253 243 244 242 239 238 247 248 247 242 248 247 235 230 230
278 275 265 260 258 257 256 256 253 253 252 253 253 253 252 254 253 252 250 249 251 253 257 258 266 264 267 269 276 284 297 293 300 278 258 250 250 251 247 252 251 247 245 240 244 245 238 231 232
293 286 279 272 265 261 259 257 255 251 249 249 250 251 250 250 249 248 248 248 249 249 250 253 258 260 265 265 272 274 281 296 289 282 259 251 254 256 254 255 252 247 248 243 243 244 242 237 238
303 293 283 282 279 269 260 260 255 250 248 246 246 246 248 246 247 246 244 246 245 246 245 246 253 255 260 260 266 268 276 282 281 287 270 251 248 252 256 258 256 253 249 246 245 245 242 242 240
322 305 295 286 277 275 273 264 259 257 250 245 244 243 245 243 246 244 242 243 242 243 241 242 246 250 253 257 257 263 265 274 267 276 283 269 249 248 250 256 260 253 250 247 247 246 247 246 247
327 314 306 297 282 273 270 269 267 258 257 248 243 241 242 242 242 244 242 240 240 239 241 241 243 246 248 252 255 255 262 265 270 270 278 279 266 250 250 253 257 256 255 252 250 249 246 249 253
322 322 313 302 290 281 270 267 264 262 258 253 247 239 237 238 239 240 240 239 239 237 237 239 240 241 244 248 253 251 256 265 265 268 268 278 271 268 255 250 252 254 255 256 254 253 253 254 256
323 315 313 310 304 289 279 274 263 260 256 255 250 246 237 233 236 236 235 236 236 237 238 237 238 237 239 242 246 251 252 258 261 264 268 272 274 271 267 257 254 253 255 257 257 257 259 259 260
326 316 316 312 304 297 287 280 276 264 258 255 252 247 238 231 233 234 233 231 235 236 236 238 236 237 238 240 239 244 246 250 252 259 256 269 264 265 267 262 256 257 257 257 257 258 259 259 260
331 320 319 312 303 297 289 283 278 273 267 260 257 254 245 233 231 235 235 230 230 233 235 236 236 235 236 236 238 240 243 247 249 252 257 262 254 261 260 263 263 259 256 258 260 260 262 263 263
331 324 316 311 306 297 290 287 284 279 270 263 258 251 247 240 229 233 236 233 228 229 231 232 233 232 233 234 234 237 240 243 247 246 252 254 252 253 253 255 258 259 258 257 258 261 263 264 266
336 323 316 311 306 299 294 289 287 283 275 267 259 255 250 243 231 229 230 232 228 226 230 232 234 234 232 231 232 234 236 239 240 244 244 249 253 250 252 255 258 259 260 258 258 260 262 265 267
335 323 316 310 304 300 300 292 294 287 276 267 265 262 254 245 242 233 226 229 227 223 224 234 236 235 233 233 232 234 235 237 239 245 243 246 246 249 251 254 254 259 262 261 261 263 264 266 268
332 322 313 308 308 308 304 302 302 294 288 276 266 262 252 243 233 227 222 223 225 219 215 220 230 234 236 233 233 234 234 235 237 241 242 243 243 247 251 255 257 257 260 262 263 265 267 267 269
332 323 318 307 315 316 308 309 308 309 294 283 267 261 254 245 234 228 221 218 222 220 216 219 228 233 231 232 232 234 235 236 236 239 241 245 247 249 252 253 256 257 261 264 268 269 270 272 275
334 325 319 309 315 317 312 317 316 312 296 286 271 258 251 245 231 225 221 217 216 221 217 216 221 231 230 232 233 234 234 237 239 241 243 246 248 250 253 256 258 261 264 266 270 275 279 279 278
335 327 321 317 320 323 317 321 320 316 301 288 272 255 246 235 223 218 215 210 214 225 219 217 219 228 232 234 235 235 237 240 240 243 246 248 248 251 253 256 260 261 265 269 272 272 274 278 278
340 335 324 321 324 322 320 323 324 319 305 295 274 248 233 214 208 213 212 207 210 210 221 217 219 228 233 238 240 240 239 241 243 244 246 248 251 253 256 258 260 263 266 270 273 274 276 278 281
345 339 327 326 327 323 322 326 329 325 324 307 262 213 200 193 188 200 202 160 198 227 227 218 216 224 231 237 239 242 243 244 245 246 248 251 253 256 256 259 262 264 266 268 270 271 274 274 277
348 341 332 328 330 324 326 326 333 331 341 345 136 160 164 164 170 172 166 192 202 205 220 223 216 221 231 237 240 243 245 246 247 250 252 254 257 257 259 261 264 266 267 268 268 270 271 274 279
347 343 336 328 326 323 327 329 338 338 344 325 131 134 137 142 141 156 172 217 206 194 190 217 223 220 229 233 240 244 247 250 252 255 255 255 255 258 260 261 261 263 263 266 266 267 268 271 273
347 344 340 333 329 324 329 330 334 340 319 271 151 163 152 157 160 181 204 209 207 205 214 229 216 219 229 233 238 243 244 248 250 250 251 253 257 259 260 261 262 263 262 263 263 265 267 269 270
346 345 343 335 332 327 326 328 329 323 277 246 198 174 169 163 173 172 193 194 200 206 217 224 215 216 220 225 233 241 246 245 248 252 254 256 257 257 257 257 258 259 261 263 264 266 267 268 269
343 342 344 337 337 333 324 322 324 316 263 239 210 199 182 179 183 191 188 191 200 208 217 223 214 217 220 225 236 242 245 246 251 255 255 257 259 260 255 256 258 260 261 261 262 264 265 267 268
342 344 345 341 340 332 321 320 315 303 251 230 209 207 194 199 192 186 195 196 198 204 198 205 212 212 217 222 232 238 238 241 243 246 249 250 253 256 260 260 257 257 260 262 263 265 266 268 270
344 343 344 341 336 335 322 313 306 285 274 226 212 212 209 204 199 207 208 199 207 197 207 210 214 215 219 217 223 229 235 242 247 252 250 251 250 250 250 248 251 257 258 260 262 265 268 269 270
343 341 342 339 337 334 326 312 304 288 267 242 218 217 217 216 214 208 206 206 207 205 212 212 215 215 220 220 226 235 240 242 243 250 254 248 250 252 250 249 250 254 257 260 261 262 264 267 271
Height
10770 10772 10774 10777 10781 10779 10778 10785 10792 10801 10801 10802 10802 10804 10807 10811 10818 10820 10820 10824 10826 10827 10829 10830 10830 10830 10830 10829 10827 10826 10826 10826 10824 10824 10823 10823 10823 10823 10823 10824 10825 10826 10827 10828 10828 10829 10829 10830 10831
10756 10758 10761 10764 10767 10766 10765 10772 10782 10790 10792 10789 10796 10795 10798 10802 10810 10811 10813 10817 10819 10821 10823 10825 10827 10826 10827 10827 10825 10824 10824 10823 10823 10822 10821 10820 10821 10820 10822 10822 10823 10823 10824 10825 10826 10826 10827 10828 10829
10743 10745 10747 10749 10750 10749 10751 10762 10769 10779 10780 10777 10783 10785 10787 10792 10794 10803 10804 10808 10812 10815 10816 10818 10821 10822 10823 10824 10823 10822 10822 10821 10821 10821 10819 10818 10819 10818 10819 10819 10820 10820 10821 10822 10823 10823 10824 10825 10826
10733 10733 10734 10735 10734 10736 10736 10745 10755 10759 10766 10764 10766 10773 10776 10778 10784 10792 10795 10799 10803 10806 10809 10811 10814 10816 10818 10819 10820 10820 10820 10818 10817 10817 10817 10816 10817 10817 10817 10818 10818 10817 10818 10818 10819 10819 10820 10821 10823
10725 10724 10723 10722 10720 10720 10721 10726 10736 10742 10749 10751 10752 10753 10764 10764 10772 10780 10784 10789 10791 10796 10801 10803 10806 10809 10812 10813 10815 10816 10816 10816 10814 10814 10814 10815 10816 10816 10816 10816 10815 10815 10815 10815 10815 10815 10816 10817 10818
10720 10717 10714 10712 10710 10711 10709 10708 10716 10724 10727 10735 10737 10736 10746 10748 10759 10764 10773 10774 10781 10785 10792 10794 10797 10800 10804 10807 10809 10811 10811 10812 10811 10810 10810 10812 10814 10814 10814 10813 10813 10812 10812 10812 10812 10812 10813 10814 10815
10713 10710 10706 10705 10700 10697 10695 10692 10696 10700 10706 10713 10717 10720 10726 10735 10738 10748 10758 10760 10770 10770 10779 10783 10787 10791 10795 10798 10801 10803 10806 10807 10808 10807 10806 10807 10808 10809 10809 10809 10809 10809 10809 10809 10809 10809 10809 10810 10811
10705 10702 10697 10695 10692 10687 10682 10681 10680 10682 10685 10692 10697 10704 10703 10721 10719 10731 10739 10744 10752 10757 10764 10771 10775 10780 10784 10788 10793 10796 10799 10801 10803 10803 10803 10802 10802 10802 10804 10804 10805 10805 10805 10804 10805 10804 10805 10806 10807
10699 10693 10688 10683 10682 10677 10672 10668 10663 10667 10664 10670 10674 10684 10686 10699 10707 10712 10722 10728 10733 10742 10749 10758 10764 10768 10773 10779 10783 10787 10790 10793 10796 10797 10797 10798 10796 10797 10797 10799 10800 10800 10801 10801 10801 10801 10800 10801 10802
10688 10681 10677 10672 10669 10665 10661 10655 10653 10648 10648 10649 10652 10657 10668 10680 10684 10687 10705 10711 10718 10725 10731 10742 10749 10756 10762 10767 10772 10777 10780 10784 10788 10790 10792 10791 10791 10791 10791 10792 10793 10795 10796 10796 10796 10797 10796 10795 10795
10677 10671 10663 10657 10655 10651 10647 10640 10639 10635 10631 10626 10632 10632 10651 10661 10657 10666 10677 10689 10700 10708 10717 10725 10734 10741 10748 10755 10761 10764 10769 10774 10778 10783 10784 10784 10785 10785 10785 10785 10787 10788 10789 10790 10791 10791 10791 10790 10789
10669 10661 10653 10646 10639 10635 10631 10624 10619 10618 10612 10605 10607 10608 10622 10637 10634 10639 10653 10669 10680 10691 10703 10710 10720 10727 10735 10742 10751 10752 10759 10765 10769 10772 10775 10778 10777 10778 10777 10777 10778 10780 10781 10782 10782 10783 10783 10782 10781
10660 10649 10642 10634 10625 10618 10613 10606 10602 10593 10592 10589 10584 10588 10599 10613 10617 10619 10630 10651 10662 10675 10685 10695 10704 10714 10722 10727 10738 10742 10749 10754 10759 10762 10765 10767 10768 10769 10769 10770 10771 10770 10771 10772 10774 10774 10774 10774 10773
10649 10637 10628 10619 10611 10604 10596 10585 10580 10571 10568 10561 10555 10561 10573 10589 10599 10602 10614 10637 10649 10659 10667 10676 10684 10699 10704 10713 10723 10729 10738 10742 10748 10751 10754 10757 10758 10759 10759 10760 10761 10762 10762 10763 10764 10765 10764 10764 10763
10634 10620 10610 10603 10593 10587 10578 10565 10561 10553 10545 10537 10531 10538 10554 10564 10579 10582 10595 10613 10635 10644 10655 10665 10674 10680 10690 10699 10708 10715 10723 10731 10735 10737 10742 10745 10748 10749 10749 10751 10752 10752 10752 10752 10753 10754 10754 10754 10753
10620 10607 10597 10586 10577 10567 10559 10546 10539 10529 10522 10516 10511 10518 10535 10544 10565 10571 10582 10596 10618 10631 10647 10652 10654 10665 10675 10686 10694 10703 10713 10717 10723 10726 10729 10732 10734 10737 10739 10741 10741 10742 10742 10742 10742 10743 10743 10742 10742
10610 10595 10583 10573 10561 10550 10540 10528 10518 10509 10501 10496 10495 10493 10506 10518 10531 10544 10563 10574 10596 10617 10623 10628 10631 10647 10658 10672 10682 10690 10699 10704 10709 10714 10717 10719 10722 10726 10728 10730 10731 10730 10730 10730 10731 10732 10731 10730 10729
10597 10585 10570 10560 10549 10536 10523 10514 10501 10493 10482 10474 10476 10476 10488 10499 10512 10529 10543 10555 10579 10602 10609 10619 10627 10633 10645 10657 10668 10677 10685 10689 10694 10699 10703 10708 10713 10716 10718 10718 10718 10719 10719 10719 10721 10720 10720 10718 10717
10587 10574 10562 10549 10537 10524 10509 10501 10489 10479 10468 10461 10460 10461 10471 10484 10498 10513 10528 10544 10566 10582 10600 10607 10617 10620 10633 10643 10651 10661 10670 10675 10684 10688 10693 10698 10702 10704 10705 10706 10707 10709 10709 10709 10709 10710 10708 10706 10704
10575 10562 10550 10536 10524 10513 10500 10490 10479 10467 10456 10451 10448 10449 10456 10468 10484 10501 10518 10537 10557 10589 10593 10603 10610 10614 10620 10625 10635 10648 10657 10664 10671 10677 10682 10685 10686 10690 10692 10694 10696 10696 10697 10697 10698 10697 10696 10693 10690
10567 10553 10539 10528 10517 10506 10494 10483 10471 10460 10450 10443 10439 10440 10447 10458 10474 10493 10511 10532 10561 10566 10576 10593 10601 10605 10612 10617 10628 10636 10645 10651 10658 10662 10667 10671 10675 10679 10681 10681 10682 10684 10686 10685 10685 10684 10682 10679 10677
10560 10544 10531 10519 10509 10499 10489 10478 10467 10454 10448 10440 10438 10438 10441 10452 10468 10486 10512 10532 10555 10554 10568 10584 10591 10598 10604 10609 10616 10623 10630 10637 10644 10650 10654 10658 10664 10665 10666 10668 10669 10669 10670 10670 10670 10669 10667 10664 10660
10552 10537 10522 10511 10502 10491 10484 10475 10466 10455 10449 10444 10444 10442 10446 10454 10468 10486 10504 10528 10532 10547 10566 10579 10585 10591 10595 10601 10605 10610 10616 10626 10632 10638 10644 10648 10650 10650 10653 10654 10655 10656 10656 10655 10653 10652 10652 10649 10642
10543 10531 10515 10505 10496 10488 10480 10472 10467 10457 10453 10451 10450 10450 10454 10466 10479 10496 10510 10518 10532 10545 10554 10556 10572 10583 10588 10593 10596 10602 10608 10612 10620 10624 10628 10631 10634 10635 10637 10639 10637 10639 10640 10638 10637 10636 10636 10634 10629
10537 10528 10512 10500 10491 10482 10477 10471 10465 10461 10456 10456 10457 10456 10458 10469 10483 10495 10508 10513 10525 10541 10554 10555 10562 10572 10577 10583 10587 10590 10596 10600 10607 10607 10611 10616 10620 10621 10623 10623 10621 10623 10622 10621 10620 10619 10619 10617 10613
10531 10521 10507 10494 10485 10479 10474 10469 10464 10462 10458 10457 10461 10460 10466 10472 10480 10485 10496 10503 10514 10526 10537 10540 10550 10559 10566 10570 10576 10580 10585 10588 10592 10596 10598 10601 10604 10606 10607 10607 10606 10606 10605 10603 10601 10601 10601 10601 10598
10525 10517 10504 10492 10482 10474 10470 10466 10463 10461 10457 10458 10459 10464 10465 10470 10475 10483 10489 10494 10500 10510 10517 10529 10539 10546 10554 10557 10564 10568 10572 10576 10578 10580 10582 10584 10586 10588 10589 10591 10590 10590 10590 10588 10586 10583 10582 10581 10579
10518 10508 10497 10487 10479 10472 10466 10463 10461 10458 10456 10455 10457 10460 10461 10467 10474 10479 10485 10490 10500 10506 10514 10523 10530 10536 10540 10544 10552 10554 10558 10561 10562 10564 10566 10568 10569 10570 10572 10574 10573 10571 10570 10568 10565 10564 10560 10559 10559
10511 10503 10493 10483 10474 10467 10461 10458 10457 10455 10453 10451 10455 10457 10459 10461 10467 10475 10482 10488 10496 10505 10512 10516 10521 10525 10528 10530 10536 10541 10543 10545 10548 10547 10549 10551 10552 10553 10555 10553 10554 10553 10552 10550 10548 10545 10543 10541 10539
10508 10499 10489 10478 10468 10461 10454 10452 10450 10450 10450 10448 10448 10453 10457 10459 10462 10468 10476 10481 10485 10493 10501 10506 10510 10513 10516 10521 10525 10528 10529 10531 10533 10534 10536 10538 10540 10541 10540 10539 10538 10538 10536 10533 10531 10528 10527 10524 10520